Tracking 35048 objects as of 19-Aug-2026
HD Live streaming from Space Station
objects crossing your sky now

SPACEMOBILE-005

Track SPACEMOBILE-005 now!
10-day predictions
SPACEMOBILE-005 is classified as:


NORAD ID: 61046
Int'l Code: 2024-163B
Launch date: September 12, 2024
Source: United States (US)
Launch site: AIR FORCE EASTERN TEST RANGE (AFETR)

Uplink (MHz):
Downlink (MHz): 430.500
Beacon (MHz):
Mode: 2k4 GFSK
Call sign:
Status: Inactive

Your satellite tracking list
Your tracking list is empty




NASA's NSSDC Master Catalog

Two Line Element Set (TLE):
1 61046U 24163B   26230.70174631  .00003601  00000-0  17644-3 0  9990
2 61046  52.9796  21.9507 0007843 315.4965  44.5399 15.20674112107276
Source of the keplerian elements: AFSPC